AirNav   ProFlight Series 2 Aviation Headset
 
 1485 users online  

63C Adams County Airport-Legion Field
Friendship (Adams), Wisconsin, USA

GOING TO FRIENDSHIP (ADAMS)?


FAA INFORMATION EFFECTIVE 18 JUNE 2020

Location

FAA Identifier: 63C
Lat/Long: 43-57-38.1171N 089-47-19.1200W
43-57.635285N 089-47.318667W
43.9605881,-89.7886444
(estimated)
Elevation: 979.2 ft. / 298.5 m (surveyed)
Variation: 01W (1995)
From city: 1 mile E of FRIENDSHIP (ADAMS), WI
Time zone: UTC -5 (UTC -6 during Standard Time)
Zip code: 53934

Airport Operations

Airport use: Open to the public
Control tower: no
ARTCC: CHICAGO CENTER
FSS: GREEN BAY FLIGHT SERVICE STATION
NOTAMs facility: GRB (NOTAM-D service available)
Attendance: UNATNDD
Wind indicator: lighted
Segmented circle: yes
Lights: ACTVT REILS RY 15/33; MIRL RY 15/33 - CTAF.
Beacon: white-green (lighted land airport)
Operates sunset to sunrise.

Airport Communications

CTAF: 122.9
VOLK APPROACH: 135.25
VOLK DEPARTURE: 135.25
WX AWOS-3 at 82C (17 nm SW): 123.925 (608-562-6153)
  • APCH/DEP SVC PRVDD BY CHICAGO ARTCC (ZAU) ON FREQS 125.05/269.375 (CAMP DOUGLAS RCAG) WHEN VOLK APCH CTL CLSD.

Nearby radio navigation aids

VOR radial/distance  VOR name  Freq  Var
DLLr354/24.6DELLS VORTAC117.0003E

 
NDB name  Hdg/Dist  Freq  Var  ID
WISCONSIN RAPIDS176/24.321501WISW .. ... .--
MCCOY088/36.941200ECMY -.-. -- -.--

Airport Services

Fuel available: 100LL
FUEL AVBL 24 HRS WITH CREDIT CARD.
Parking: tiedowns
Airframe service: NONE
Powerplant service: NONE
Bottled oxygen: NONE
Bulk oxygen: NONE

Runway Information

Runway 15/33

Dimensions: 3398 x 60 ft. / 1036 x 18 m
Surface: asphalt, in good condition
Weight bearing capacity: 
Single wheel: 12.5
Runway edge lights: medium intensity
RUNWAY 15  RUNWAY 33
Latitude: 43-57.897525N43-57.395970N
Longitude: 089-47.552560W089-47.209955W
Elevation: 968.4 ft.979.0 ft.
Traffic pattern: leftleft
Runway heading: 154 magnetic, 153 true334 magnetic, 333 true
Markings: nonprecision, in good conditionnonprecision, in good condition
Visual slope indicator: 2-light PAPI on left (3.00 degrees glide path)
OPERATE CONTINUOUSLY.
2-light PAPI on left (3.00 degrees glide path)
OPERATE CONTINUOUSLY.
Runway end identifier lights: yesyes
Touchdown point: yes, no lightsyes, no lights
Obstructions: 52 ft. trees, 980 ft. from runway, 175 ft. right of centerline, 15:1 slope to clear50 ft. trees, 800 ft. from runway, 250 ft. right of centerline, 12:1 slope to clear

Runway 8/26

Dimensions: 2780 x 100 ft. / 847 x 30 m
Surface: turf, in fair condition
Runway edge markings: 08/26 MKD WITH 3 FT WHITE CONES.
Operational restrictions: RY 08/26 CLSD DEC 1 - APR 1.
RUNWAY 8  RUNWAY 26
Latitude: 43-57.583217N43-57.659335N
Longitude: 089-47.554413W089-46.929913W
Elevation: 973.5 ft.978.1 ft.
Traffic pattern: leftleft
Runway heading: 081 magnetic, 080 true261 magnetic, 260 true
Touchdown point: yes, no lightsyes, no lights
Obstructions: 60 ft. trees, 1400 ft. from runway, 20 ft. right of centerline, 23:1 slope to clear60 ft. trees, 1250 ft. from runway, 200 ft. left of centerline, 20:1 slope to clear

Airport Ownership and Management from official FAA records

Ownership: Publicly-owned
Owner: ADAMS COUNTY
PO BOX 278
FRIENDSHIP, WI 53934
Phone 608-339-4200
Manager: MIKE SCOTT
PO BOX 819
ADAMS, WI 53910
Phone (608) 547-1303

Airport Operational Statistics

Aircraft based on the field: 13
Single engine airplanes: 13
    
Aircraft operations: avg 135/week *
57% local general aviation
42% transient general aviation
<1% air taxi
<1% military
* for 12-month period ending 26 June 2019

Additional Remarks

ULTRALIGHT ACTVTY ON & IN VCNTY OF ARPT.
ACFT DEP RY 15 REQUESTED TO TURN TO A HEADING OF 180 DEGREES AFT TAKEOFF.
FOR CD CTC CHICAGO ARTCC AT 630-906-8921.

Instrument Procedures

NOTE: All procedures below are presented as PDF files. If you need a reader for these files, you should download the free Adobe Reader.

NOT FOR NAVIGATION. Please procure official charts for flight.
FAA instrument procedures published for use from 18 June 2020 at 0901Z to 16 July 2020 at 0900Z.

 
IAPs - Instrument Approach Procedures
RNAV (GPS) RWY 33   download (217KB)
NOTE: Special Take-Off Minimums/Departure Procedures apply   download (599KB)

Other nearby airports with instrument procedures:

KDAF - Necedah Airport (14 nm W)
82C - Mauston-New Lisbon Union Airport (17 nm SW)
KVOK - Volk Field Airport (20 nm W)
Y50 - Wautoma Municipal Airport (21 nm E)
KISW - Alexander Field South Wood County Airport (24 nm N)
 
Loc | Ops | Rwys | IFR | FBO | Links
Com | Nav | Svcs | Stats | Notes
Area around 63C (Adams County Airport-Legion Field)
 
Road maps at: MapQuest Bing Google
 
Aerial photo
WARNING: Photo may not be current or correct
Aerial photo of 63C (Adams County Airport-Legion Field)
Photo by Mathieu Labs
Photo taken 07-May-2006

Do you have a better or more recent aerial photo of Adams County Airport-Legion Field that you would like to share? If so, please send us your photo.

 
Sectional chart

 
Airport distance calculator
Flying to Adams County Airport-Legion Field? Find the distance to fly.

From to 63C

Sunrise and sunset
Times for 07-Jul-2020
 Local
(UTC-5)
 Zulu
(UTC)
Morning civil twilight04:5009:50
Sunrise05:2610:26
Sunset20:4301:43
Evening civil twilight21:1802:18

Current date and time
Zulu (UTC)  07-Jul-2020 15:57:54
Local (UTC-5)  07-Jul-2020 10:57:54
 
METAR
K82C 
17nm SW 
071535Z AUTO 24004KT 10SM CLR 29/22 A2997 RMK AO2 T02910218
KVOK 
21nm W 
071456Z 30003KT 10SM FEW040 FEW200 28/24 A2997 RMK AO2A SLP147 58005
KY50 
21nm E 
071456Z AUTO 29004KT 10SM CLR 28/22 A2998 RMK AO2 SLP144 6//// T02780222 58002 $
KISW 
24nm N 
071554Z AUTO 26006KT 10SM CLR 29/21 A2999 RMK AO2 SLP149 T02890206
KDLL 
26nm S 
071555Z AUTO 24006KT 10SM CLR 30/21 A2998 RMK AO2 T03000205
KC35 
27nm S 
071555Z AUTO 22005KT 10SM CLR 30/22 A2997 RMK AO2 T03000223 PWINO
TAF
KVOK 
21nm W 
071219Z 0712/0815 30006KT 9999 FEW030 SCT080 QNH2993INS TEMPO 0713/0716 31015G25KT 8000 -TSRA BKN030CB BECMG 0716/0717 30010G15KT 9000 BR FEW030 SCT080 QNH2993INS BECMG 0721/0722 VRB06KT 9999 NSW FEW040 QNH2991INS TX27/0721Z TN20/0712Z
NOTAMs
Click for the latest NOTAMs
NOTAMs are issued by the DoD/FAA and will open in a separate window not controlled by AirNav.

 

 
 

FBO, Fuel Providers, and Aircraft Ground Support

  
 Business Name 
 
 Contact 
 
 Services / Description 
 
Fuel Prices
 
Comments
  
Adams County Airport-Legion Field 608-339-3919
[email]
Aviation fuel, Aircraft parking (ramp or tiedown), Passenger terminal and lounge, Rental cars, Courtesy transportation, ...
 
Courtesy car  
 
More info about Adams County Airport-Legion Field
Avfuel
100LL
SS $4.17 
 Updated 16-Jun-2020
 
   write
SS=Self service
Update Fuel Prices
 

Would you like to see your business listed on this page?

 If your business provides an interesting product or service to pilots, flight crews, aircraft, or users of the Adams County Airport-Legion Field, you should consider listing it here.  To start the listing process, click on the button below
 
Add a business
 

Other Pages about Adams County Airport-Legion Field

Page from the Wisconsin airport directory (PDF)
 
Update a link
 
Copyright © AirNav, LLC. All rights reserved. Privacy Policy  Contact